DW3068 Weather Reports


Display with metric or nautical units.
time (UTC)temp
F
wind
direction
speed
MPH
gust
MPH
rain 1hr
in
rain 24hr
in
rain mn
in
humidity
%
barometer
mb
20260906031825 68 41 5.0 11.0 0.00 0.00 0.00 48 1025.8
20260906031330 68 68 6.0 13.0 0.00 0.00 0.00 48 1025.8
20260906030824 68 73 6.0 11.0 0.00 0.00 0.00 49 1025.8
20260906030329 69 36 7.0 11.0 0.00 0.00 0.00 49 1025.8
20260906025823 69 74 5.0 14.0 0.00 0.00 0.00 50 1025.9
20260906025339 69 82 6.0 14.0 0.00 0.00 0.00 50 1025.8
20260906024843 69 40 6.0 11.0 0.00 0.00 0.00 50 1025.6
20260906024327 69 47 4.0 10.0 0.00 0.00 0.00 50 1025.6
20260906023821 69 42 5.0 10.0 0.00 0.00 0.00 50 1025.4
20260906023327 69 71 5.0 10.0 0.00 0.00 0.00 50 1025.5
20260906022817 70 50 4.0 9.0 0.00 0.00 0.00 50 1025.3
20260906022322 70 64 5.0 12.0 0.00 0.00 0.00 50 1025.4
20260906021830 70 49 5.0 12.0 0.00 0.00 0.00 50 1025.3
20260906021326 70 92 7.0 13.0 0.00 0.00 0.00 50 1025.1
20260906020841 70 67 7.0 16.0 0.00 0.00 0.00 51 1025.2
20260906020327 70 39 8.0 16.0 0.00 0.00 0.00 51 1025.2
20260906015820 70 32 4.0 13.0 0.00 0.00 0.00 51 1025.2
20260906015323 70 44 8.0 13.0 0.00 0.00 0.00 51 1025.0
20260906014830 70 78 8.0 16.0 0.00 0.00 0.00 52 1024.9
20260906014324 70 49 8.0 16.0 0.00 0.00 0.00 52 1024.9
20260906013830 70 86 5.0 15.0 0.00 0.00 0.00 52 1024.9
20260906013324 70 41 7.0 13.0 0.00 0.00 0.00 53 1025.0
20260906012839 71 65 8.0 13.0 0.00 0.00 0.00 52 1024.9
20260906012323 71 42 7.0 14.0 0.00 0.00 0.00 52 1024.9
20260906011839 71 39 9.0 15.0 0.00 0.00 0.00 52 1025.0
20260906011325 71 74 8.0 16.0 0.00 0.00 0.00 52 1025.0
20260906010840 71 31 10.0 16.0 0.00 0.00 0.00 52 1025.0
20260906010326 71 45 6.0 14.0 0.00 0.00 0.00 52 1024.9
20260906005819 71 19 7.0 14.0 0.00 0.00 0.00 52 1024.9
20260906005334 71 55 8.0 13.0 0.00 0.00 0.00 52 1024.8
20260906004839 71 36 6.0 12.0 0.00 0.00 0.00 52 1024.7
20260906004322 71 49 8.0 13.0 0.00 0.00 0.00 52 1024.6
20260906003817 71 34 6.0 14.0 0.00 0.00 0.00 53 1024.6
20260906003318 71 62 9.0 14.0 0.00 0.00 0.00 53 1024.6
20260906002834 71 42 7.0 14.0 0.00 0.00 0.00 53 1024.6
20260906002327 71 32 6.0 13.0 0.00 0.00 0.00 53 1024.5
20260906001831 71 47 6.0 15.0 0.00 0.00 0.00 53 1024.5
20260906001325 71 65 9.0 16.0 0.00 0.00 0.00 53 1024.5
20260906000841 72 65 8.0 12.0 0.00 0.00 0.00 53 1024.4
20260906000326 72 79 7.0 14.0 0.00 0.00 0.00 53 1024.5
20260905235820 72 44 9.0 16.0 0.00 0.00 0.00 53 1024.5
20260905235334 72 59 9.0 16.0 0.00 0.00 0.00 53 1024.4
20260905234840 72 55 6.0 16.0 0.00 0.00 0.00 54 1024.5
20260905234327 72 34 6.0 15.0 0.00 0.00 0.00 54 1024.5
20260905233842 72 39 8.0 15.0 0.00 0.00 0.00 54 1024.4
20260905233337 72 42 7.0 13.0 0.00 0.00 0.00 54 1024.3
20260905232820 72 74 7.0 15.0 0.00 0.00 0.00 55 1024.4
20260905232355 72 65 10.0 15.0 0.00 0.00 0.00 55 1024.3
20260905231820 72 44 6.0 13.0 0.00 0.00 0.00 56 1024.2
20260905231316 73 45 5.0 15.0 0.00 0.00 0.00 55 1024.3
20260905230848 73 74 9.0 15.0 0.00 0.00 0.00 55 1024.1
20260905230329 73 82 7.0 14.0 0.00 0.00 0.00 56 1024.3
20260905225822 73 11 4.0 10.0 0.00 0.00 0.00 56 1024.3
20260905225316 73 44 4.0 16.0 0.00 0.00 0.00 56 1024.2
20260905224822 73 64 6.0 13.0 0.00 0.00 0.00 56 1024.2
20260905224327 73 45 8.0 13.0 0.00 0.00 0.00 56 1024.2
20260905223823 73 323 4.0 16.0 0.00 0.00 0.00 56 1024.0
20260905223329 74 344 7.0 16.0 0.00 0.00 0.00 56 1024.0
20260905222824 74 66 9.0 14.0 0.00 0.00 0.00 56 1023.9
20260905222317 74 49 5.0 14.0 0.00 0.00 0.00 56 1023.9
20260905221832 74 59 5.0 14.0 0.00 0.00 0.00 56 1023.7
20260905221338 74 50 8.0 14.0 0.00 0.00 0.00 56 1023.7
20260905220832 74 338 6.0 15.0 0.00 0.00 0.00 56 1023.7
20260905220317 74 32 7.0 18.0 0.00 0.00 0.00 56 1023.6
20260905215829 75 70 10.0 18.0 0.00 0.00 0.00 56 1023.4
20260905215324 75 87 10.0 20.0 0.00 0.00 0.00 56 1023.3
20260905214846 75 92 10.0 22.0 0.00 0.00 0.00 56 1023.4
20260905214341 75 78 13.0 23.0 0.00 0.00 0.00 56 1023.2
20260905213826 75 82 14.0 23.0 0.00 0.00 0.00 55 1023.2
20260905213341 75 67 10.0 18.0 0.00 0.00 0.00 55 1023.0
20260905212826 76 69 10.0 22.0 0.00 0.00 0.00 54 1022.9
20260905212341 76 87 14.0 23.0 0.00 0.00 0.00 54 1023.0
20260905211827 76 78 14.0 23.0 0.00 0.00 0.00 54 1023.1
20260905211321 77 28 9.0 20.0 0.00 0.00 0.00 53 1023.0
20260905210816 77 77 13.0 20.0 0.00 0.00 0.00 52 1023.0
20260905210322 77 98 13.0 20.0 0.00 0.00 0.00 51 1022.9
20260905205815 78 89 10.0 17.0 0.00 0.00 0.00 48 1022.9
20260905205327 78 68 10.0 16.0 0.00 0.00 0.00 47 1022.9
20260905204814 78 110 9.0 17.0 0.00 0.00 0.00 46 1022.7
20260905204350 78 55 11.0 17.0 0.00 0.00 0.00 46 1022.6
20260905203815 77 82 8.0 14.0 0.00 0.00 0.00 46 1022.5
20260905203344 77 91 8.0 13.0 0.00 0.00 0.00 46 1022.5
20260905202818 77 74 9.0 13.0 0.00 0.00 0.00 46 1022.4
20260905202324 76 98 7.0 12.0 0.00 0.00 0.00 45 1022.6
20260905201839 75 83 6.0 8.0 0.00 0.00 0.00 46 1022.5
20260905201329 74 98 4.0 8.0 0.00 0.00 0.00 47 1022.4
20260905200815 73 91 3.0 6.0 0.00 0.00 0.00 48 1022.4
20260905200330 74 105 2.0 6.0 0.00 0.00 0.00 48 1022.5
20260905195815 75 26 2.0 5.0 0.00 0.00 0.00 47 1022.6
20260905195328 75 232 0.0 2.0 0.00 0.00 0.00 46 1022.4
20260905194834 75 232 1.0 2.0 0.00 0.00 0.00 46 1022.5
20260905194328 75 234 0.0 2.0 0.00 0.00 0.00 45 1022.4
20260905193840 75 234 1.0 3.0 0.00 0.00 0.00 46 1022.3
20260905193326 75 235 2.0 6.0 0.00 0.00 0.00 47 1022.3
20260905192841 76 264 1.0 6.0 0.00 0.00 0.00 45 1022.3
20260905192326 76 241 0.0 2.0 0.00 0.00 0.00 43 1022.5
20260905191840 77 104 0.0 4.0 0.00 0.00 0.00 42 1022.0
20260905191331 77 105 2.0 6.0 0.00 0.00 0.00 42 1021.9
20260905190818 77 76 3.0 6.0 0.00 0.00 0.00 42 1021.7
20260905190332 77 101 3.0 4.0 0.00 0.00 0.00 42 1021.7
20260905185819 77 101 2.0 4.0 0.00 0.00 0.00 41 1021.6
20260905185331 77 95 2.0 4.0 0.00 0.00 0.00 41 1021.6
20260905184838 77 111 1.0 3.0 0.00 0.00 0.00 42 1021.5
20260905184324 77 99 1.0 3.0 0.00 0.00 0.00 42 1021.5
20260905183817 77 93 1.0 3.0 0.00 0.00 0.00 42 1021.4
20260905183330 78 93 1.0 3.0 0.00 0.00 0.00 42 1021.3
20260905182816 78 93 1.0 6.0 0.00 0.00 0.00 42 1021.2
20260905182350 77 105 2.0 7.0 0.00 0.00 0.00 42 1021.4
20260905181822 77 94 2.0 7.0 0.00 0.00 0.00 43 1021.3
20260905181329 78 94 3.0 5.0 0.00 0.00 0.00 43 1021.4
20260905180822 79 78 2.0 3.0 0.00 0.00 0.00 43 1021.2
20260905180338 79 107 0.0 1.0 0.00 0.00 0.00 42 1021.1
20260905175843 80 107 0.0 2.0 0.00 0.00 0.00 43 1021.0
20260905175337 80 107 1.0 2.0 0.00 0.00 0.00 41 1020.9
20260905174819 81 107 0.0 1.0 0.00 0.00 0.00 41 1021.0
20260905174334 81 107 0.0 2.0 0.00 0.00 0.00 40 1020.7
20260905173820 81 107 1.0 3.0 0.00 0.00 0.00 39 1020.7
20260905173335 81 107 1.0 3.0 0.00 0.00 0.00 40 1020.7
20260905172821 82 255 0.0 3.0 0.00 0.00 0.00 40 1020.9
20260905172314 83 255 1.0 2.0 0.00 0.00 0.00 40 1020.7
20260905171819 84 255 0.0 1.0 0.00 0.00 0.00 39 1020.7
20260905171314 85 255 0.0 1.0 0.00 0.00 0.00 37 1020.7
20260905170829 86 255 0.0 2.0 0.00 0.00 0.00 35 1020.6
20260905170314 86 255 1.0 2.0 0.00 0.00 0.00 35 1020.7
20260905165850 88 255 1.0 2.0 0.00 0.00 0.00 34 1020.6
20260905165341 88 255 0.0 2.0 0.00 0.00 0.00 31 1020.6
20260905164847 89 255 1.0 2.0 0.00 0.00 0.00 31 1020.6
20260905164319 89 255 0.0 3.0 0.00 0.00 0.00 31 1020.6
20260905163835 90 255 1.0 3.0 0.00 0.00 0.00 31 1020.5
20260905163322 90 255 0.0 3.0 0.00 0.00 0.00 30 1020.5
20260905162832 91 255 1.0 3.0 0.00 0.00 0.00 30 1020.4
20260905162318 91 238 2.0 3.0 0.00 0.00 0.00 30 1020.3
20260905161853 91 238 1.0 3.0 0.00 0.00 0.00 30 1020.4
20260905161347 91 238 1.0 3.0 0.00 0.00 0.00 30 1020.4
20260905160841 91 238 2.0 5.0 0.00 0.00 0.00 30 1020.5
20260905160326 91 355 3.0 5.0 0.00 0.00 0.00 29 1020.6
20260905155821 92 325 3.0 5.0 0.00 0.00 0.00 28 1020.6
20260905155335 93 263 1.0 3.0 0.00 0.00 0.00 27 1020.5
20260905154842 93 268 1.0 3.0 0.00 0.00 0.00 27 1020.5
20260905154326 93 261 0.0 2.0 0.00 0.00 0.00 27 1020.4
20260905153821 93 261 1.0 3.0 0.00 0.00 0.00 27 1020.4
20260905153335 93 261 1.0 3.0 0.00 0.00 0.00 27 1020.5
20260905152821 92 238 1.0 3.0 0.00 0.00 0.00 26 1020.5
20260905152317 92 239 0.0 4.0 0.00 0.00 0.00 26 1020.5
20260905151822 93 258 1.0 5.0 0.00 0.00 0.00 27 1020.5
20260905151316 93 231 2.0 5.0 0.00 0.00 0.00 26 1020.5
20260905150847 93 297 0.0 3.0 0.00 0.00 0.00 26 1020.5
20260905150331 92 223 1.0 3.0 0.00 0.00 0.00 26 1020.5
20260905145824 92 222 2.0 4.0 0.00 0.00 0.00 26 1020.7
20260905145320 91 193 2.0 4.0 0.00 0.00 0.00 26 1020.6
20260905144824 91 306 2.0 5.0 0.00 0.00 0.00 27 1020.7
20260905144339 91 298 3.0 5.0 0.00 0.00 0.00 27 1020.8
20260905143845 91 302 2.0 7.0 0.00 0.00 0.00 27 1020.8
20260905143318 90 82 2.0 7.0 0.00 0.00 0.00 27 1020.7
20260905142823 90 75 2.0 6.0 0.00 0.00 0.00 27 1020.8
20260905142317 91 80 4.0 8.0 0.00 0.00 0.00 27 1020.8
20260905141831 91 286 3.0 8.0 0.00 0.00 0.00 26 1020.9
20260905141324 91 295 1.0 9.0 0.00 0.00 0.00 26 1020.8
20260905140831 92 344 4.0 9.0 0.00 0.00 0.00 25 1020.9
20260905140323 93 271 0.0 3.0 0.00 0.00 0.00 25 1021.1
20260905135852 92 267 1.0 3.0 0.00 0.00 0.00 26 1021.1
20260905135315 92 269 2.0 5.0 0.00 0.00 0.00 27 1021.1
20260905134841 92 207 2.0 5.0 0.00 0.00 0.00 27 1021.1
20260905134334 91 151 2.0 5.0 0.00 0.00 0.00 28 1021.3
20260905133818 91 251 2.0 7.0 0.00 0.00 0.00 28 1021.3
20260905133331 90 180 3.0 8.0 0.00 0.00 0.00 29 1021.3
20260905132824 90 261 4.0 8.0 0.00 0.00 0.00 29 1021.3
20260905132331 90 327 4.0 8.0 0.00 0.00 0.00 30 1021.3
20260905131825 90 343 1.0 6.0 0.00 0.00 0.00 30 1021.3
20260905131331 89 242 3.0 6.0 0.00 0.00 0.00 30 1021.4
20260905130826 89 82 2.0 6.0 0.00 0.00 0.00 30 1021.3
20260905130341 89 71 4.0 6.0 0.00 0.00 0.00 30 1021.4
20260905125825 89 130 2.0 6.0 0.00 0.00 0.00 31 1021.5
20260905125319 89 31 1.0 10.0 0.00 0.00 0.00 31 1021.6
20260905124826 88 336 4.0 10.0 0.00 0.00 0.00 32 1021.7
20260905124333 88 27 3.0 8.0 0.00 0.00 0.00 32 1021.8
20260905123827 88 330 4.0 8.0 0.00 0.00 0.00 31 1021.9
20260905123333 88 26 3.0 8.0 0.00 0.00 0.00 30 1021.8
20260905122826 88 171 2.0 8.0 0.00 0.00 0.00 31 1021.9
20260905122328 88 275 3.0 9.0 0.00 0.00 0.00 30 1022.0
20260905121822 89 311 4.0 9.0 0.00 0.00 0.00 29 1022.2
20260905121335 90 279 2.0 7.0 0.00 0.00 0.00 30 1022.2
20260905120819 90 133 2.0 8.0 0.00 0.00 0.00 31 1022.2
20260905120333 89 228 2.0 8.0 0.00 0.00 0.00 30 1022.3
20260905115818 89 288 2.0 8.0 0.00 0.00 0.00 30 1022.3
20260905115403 89 159 3.0 6.0 0.00 0.00 0.00 31 1022.3
20260905114817 89 157 1.0 7.0 0.00 0.00 0.00 31 1022.4
20260905114332 88 220 3.0 5.0 0.00 0.00 0.00 32 1022.3
20260905113816 87 44 1.0 3.0 0.00 0.00 0.00 33 1022.4
20260905113328 86 321 1.0 4.0 0.00 0.00 0.00 33 1022.4
20260905112824 86 355 1.0 6.0 0.00 0.00 0.00 32 1022.6
20260905112329 86 327 5.0 9.0 0.00 0.00 0.00 32 1022.6
20260905111822 86 281 4.0 10.0 0.00 0.00 0.00 33 1022.6
20260905111325 86 240 3.0 10.0 0.00 0.00 0.00 35 1022.6
20260905110818 85 236 1.0 5.0 0.00 0.00 0.00 36 1022.6
20260905110353 85 301 2.0 8.0 0.00 0.00 0.00 38 1022.6
20260905105817 85 333 2.0 8.0 0.00 0.00 0.00 38 1022.6
20260905105328 85 329 3.0 9.0 0.00 0.00 0.00 38 1022.6
20260905104833 85 229 4.0 8.0 0.00 0.00 0.00 38 1022.6
20260905104327 85 273 2.0 4.0 0.00 0.00 0.00 38 1022.6
20260905103833 85 267 2.0 4.0 0.00 0.00 0.00 39 1022.7
20260905103324 84 225 2.0 4.0 0.00 0.00 0.00 40 1022.7
20260905102828 83 105 2.0 4.0 0.00 0.00 0.00 40 1022.8
20260905102322 83 294 2.0 7.0 0.00 0.00 0.00 41 1022.8
20260905101836 82 226 2.0 7.0 0.00 0.00 0.00 42 1022.9
20260905101320 82 233 2.0 8.0 0.00 0.00 0.00 42 1023.1
20260905100853 82 288 3.0 8.0 0.00 0.00 0.00 42 1023.0
20260905100325 82 302 2.0 7.0 0.00 0.00 0.00 43 1023.2
20260905095841 82 203 2.0 6.0 0.00 0.00 0.00 43 1023.2
20260905095322 82 263 2.0 7.0 0.00 0.00 0.00 43 1023.4
20260905094829 81 196 1.0 7.0 0.00 0.00 0.00 44 1023.4
20260905094323 81 225 4.0 7.0 0.00 0.00 0.00 43 1023.4
20260905093853 81 295 3.0 8.0 0.00 0.00 0.00 44 1023.5
20260905093317 80 226 1.0 8.0 0.00 0.00 0.00 45 1023.6
20260905092830 80 237 2.0 6.0 0.00 0.00 0.00 45 1023.5
20260905092343 80 236 2.0 5.0 0.00 0.00 0.00 46 1023.6
20260905091835 79 240 1.0 4.0 0.00 0.00 0.00 47 1023.6
20260905091339 78 298 3.0 5.0 0.00 0.00 0.00 47 1023.6
20260905090851 78 300 3.0 5.0 0.00 0.00 0.00 46 1023.6
20260905090324 78 239 3.0 6.0 0.00 0.00 0.00 47 1023.7
20260905085859 78 213 2.0 5.0 0.00 0.00 0.00 48 1023.7
20260905085319 77 175 1.0 4.0 0.00 0.00 0.00 49 1023.8
20260905084854 76 214 1.0 6.0 0.00 0.00 0.00 49 1023.8
20260905084316 76 309 2.0 6.0 0.00 0.00 0.00 49 1023.9
20260905083830 76 288 3.0 6.0 0.00 0.00 0.00 50 1023.8
20260905083313 76 322 2.0 5.0 0.00 0.00 0.00 49 1023.9
20260905082842 76 227 0.0 3.0 0.00 0.00 0.00 51 1023.9
20260905082333 75 230 1.0 4.0 0.00 0.00 0.00 51 1023.9
20260905081817 74 186 2.0 5.0 0.00 0.00 0.00 52 1024.0
20260905081330 74 234 3.0 5.0 0.00 0.00 0.00 52 1023.9
20260905080815 74 294 3.0 5.0 0.00 0.00 0.00 53 1023.9
20260905080330 73 322 1.0 4.0 0.00 0.00 0.00 54 1023.9
20260905075816 73 326 1.0 7.0 0.00 0.00 0.00 54 1023.8
20260905075349 73 287 3.0 7.0 0.00 0.00 0.00 53 1023.9
20260905074814 73 209 1.0 3.0 0.00 0.00 0.00 54 1023.8
20260905074350 73 310 1.0 4.0 0.00 0.00 0.00 54 1023.9
20260905073832 72 229 1.0 5.0 0.00 0.00 0.00 55 1024.0
20260905073317 72 227 2.0 5.0 0.00 0.00 0.00 55 1023.9
20260905072849 72 132 0.0 4.0 0.00 0.00 0.00 57 1023.9
20260905072321 71 223 1.0 4.0 0.00 0.00 0.00 57 1023.8
20260905071851 71 215 2.0 4.0 0.00 0.00 0.00 58 1023.9
20260905071342 70 218 1.0 4.0 0.00 0.00 0.00 58 1023.8
20260905070826 70 233 2.0 5.0 0.00 0.00 0.00 58 1023.8
20260905070318 71 223 1.0 3.0 0.00 0.00 0.00 57 1023.7
20260905065833 71 202 1.0 3.0 0.00 0.00 0.00 58 1023.7
20260905065319 70 187 1.0 3.0 0.00 0.00 0.00 60 1023.8
20260905064827 69 204 0.0 3.0 0.00 0.00 0.00 61 1023.8
20260905064341 69 163 1.0 4.0 0.00 0.00 0.00 61 1023.9
20260905063826 69 86 0.0 2.0 0.00 0.00 0.00 62 1023.9
20260905063327 68 86 0.0 2.0 0.00 0.00 0.00 62 1023.9
20260905062820 68 87 0.0 2.0 0.00 0.00 0.00 62 1023.9
20260905062315 67 87 1.0 4.0 0.00 0.00 0.00 64 1024.0
20260905061819 67 90 1.0 4.0 0.00 0.00 0.00 64 1024.0
20260905061350 67 90 1.0 4.0 0.00 0.00 0.00 65 1024.1
20260905060824 67 90 3.0 4.0 0.00 0.00 0.00 64 1023.9
20260905060330 67 99 1.0 3.0 0.00 0.00 0.00 64 1024.0
20260905055825 66 100 1.0 2.0 0.00 0.00 0.00 65 1024.1
20260905055337 66 100 1.0 2.0 0.00 0.00 0.00 65 1024.0
20260905054815 65 100 0.0 2.0 0.00 0.00 0.00 66 1024.0
20260905054330 64 100 1.0 2.0 0.00 0.00 0.00 67 1024.0
20260905053815 64 100 1.0 2.0 0.00 0.00 0.00 68 1024.0
20260905053327 64 100 0.0 0.0 0.00 0.00 0.00 69 1023.9
20260905052822 63 100 0.0 0.0 0.00 0.00 0.00 71 1023.9
20260905052326 62 100 0.0 1.0 0.00 0.00 0.00 72 1024.0
20260905051820 62 100 0.0 1.0 0.00 0.00 0.00 72 1023.9
20260905051322 62 100 0.0 2.0 0.00 0.00 0.00 73 1023.8
20260905050838 62 100 1.0 2.0 0.00 0.00 0.00 73 1023.9
20260905050331 61 100 0.0 1.0 0.00 0.00 0.00 73 1023.9
20260905045818 61 100 0.0 0.0 0.00 0.00 0.00 74 1023.8
20260905045331 60 100 0.0 0.0 0.00 0.00 0.00 76 1023.8
20260905044832 59 100 0.0 0.0 0.00 0.00 0.00 77 1023.9
20260905044403 59 100 0.0 0.0 0.00 0.00 0.00 78 1023.9
20260905043824 58 100 0.0 0.0 0.00 0.00 0.00 77 1023.8
20260905043317 58 100 0.0 0.0 0.00 0.00 0.00 77 1023.9
20260905042832 58 100 0.0 0.0 0.00 0.00 0.00 77 1023.8
20260905042317 58 100 0.0 0.0 0.00 0.00 0.00 77 1023.7
20260905041832 58 100 0.0 2.0 0.00 0.00 0.00 76 1023.6
20260905041317 59 100 0.0 2.0 0.00 0.00 0.00 76 1023.6
20260905040831 59 100 0.0 0.0 0.00 0.00 0.00 76 1023.5
20260905040324 59 100 0.0 0.0 0.00 0.00 0.00 75 1023.6
20260905035819 59 100 0.0 0.0 0.00 0.00 0.00 75 1023.6
20260905035325 59 100 0.0 0.0 0.00 0.00 0.00 75 1023.6
20260905034832 60 100 0.0 0.0 0.00 0.00 0.00 74 1023.6
20260905034328 60 100 0.0 0.0 0.00 0.00 0.00 74 1023.5
20260905033833 60 100 0.0 0.0 0.00 0.00 0.00 74 1023.4
20260905033329 60 100 0.0 1.0 0.00 0.00 0.00 74 1023.4
20260905032815 59 100 0.0 1.0 0.00 0.00 0.00 75 1023.5
20260905032344 59 100 0.0 2.0 0.00 0.00 0.00 75 1023.5